Location: Mat�lon
(46.2791°N, 7.1028°E)
Time: 02:36:22
(UTC+00:00)

Lacrosse 5 rocket - Pass Details

Date: 18 September 2020
Orbit: 460 x 636 km, 57.0° (Epoch: 29 October)

Event Time Altitude Azimuth Distance (km) Brightness Sun altitude
Rises 18:06:17 0° 254° (WSW) 2,709 6.2 -6.0°
Reaches altitude 10° 18:08:33 10° 262° (W) 1,849 5.5 -6.3°
Maximum altitude 18:12:31 40° 332° (NNW) 874 2.7 -7.0°
Drops below altitude 10° 18:16:43 10° 43° (NE) 1,955 3.8 -7.7°
Sets 18:19:11 0° 51° (NE) 2,885 4.6 -8.2°
